Regional Weather Roundup
Issued by NWS

Home | Current Version | Previous Version | Text Only | Print | Product List | Glossary Off
Versions: 1 2 3 4 5 6 7 8 9 10 11 12 13 14 15 16 17 18 19 20 21 22 23 24 25 26 27 28 29 30 31 32 33 34 35 36 37 38 39 40 41 42 43 44 45 46 47 48 49 50

000
ASUS45 KCYS 292310
RWRWY

WYOMING REGIONAL WEATHER ROUNDUP
NATIONAL WEATHER SERVICE CHEYENNE WY
500 PM MDT FRI JUL 29 2016

NOTE:  "FAIR" INDICATES FEW OR NO CLOUDS BELOW 12,000 FEET
WITH NO SIGNIFICANT WEATHER AND/OR OBSTRUCTIONS TO VISIBILITY.

WYZ001-300000-
YELLOWSTONE NATIONAL PARK

CITY           SKY/WX    TMP DP  RH WIND       PRES   REMARKS
LK YELLOWSTONE   N/A     78  27  15 VRB5      30.25F
W YELLOWSTONE  NOT AVBL

$$
WYZ002>013-054>058-071-098>099-300000-
NORTHERN WYOMING

CITY           SKY/WX    TMP DP  RH WIND       PRES   REMARKS
JACKSON        SUNNY     84  34  16 SW8G16    30.13F
CODY           FAIR      81  46  30 NW7       30.07F
GREYBULL       FAIR      92  41  17 N14G26    29.96S
WORLAND        FAIR      92  40  16 N12       29.96F
SHERIDAN       FAIR      89  45  21 NW8       30.01F
BUFFALO        FAIR      83  45  26 CALM      30.09F
GILLETTE       FAIR      83  46  27 E6        30.04F
HULETT         FAIR      81  54  39 NE7       30.06F
NEWCASTLE      FAIR      81  45  28 N7        30.04S

$$
WYZ014>020-022>026-101>103-300000-
CENTRAL WYOMING

CITY           SKY/WX    TMP DP  RH WIND       PRES   REMARKS
BIG PINEY      FAIR      87  29  12 NW15G23   30.16F
PINEDALE       FAIR      82  32  16 N8        30.17F
DUBOIS         FAIR      81  27  13 N12       30.16S
LANDER         FAIR      90  40  17 CALM      30.02F
RIVERTON       FAIR      88  36  15 N21G26    30.03F
CASPER         FAIR      85  44  23 SE17      30.05F
DOUGLAS        FAIR      74  53  48 SE15      30.10R

$$
WYZ021-027>030-104>119-300000-
SOUTHERN WYOMING

CITY           SKY/WX    TMP DP  RH WIND       PRES   REMARKS
EVANSTON       FAIR      88  29  12 W22G28    30.21F
KEMMERER         N/A    N/A N/A N/A W18G29    30.20F
FORT BRIDGER   FAIR      90  26  10 NW21G31   30.21F
ROCK SPRINGS   FAIR      90  24   9 W21G33    30.12F
DIXON          FAIR      90  30  11 W15G22    30.14F
RAWLINS        FAIR      89  24   9 W13G21    30.12F
SARATOGA       FAIR      86  32  14 W9        30.15F
LARAMIE        FAIR      76  51  41 E23G30    30.17F
CHEYENNE       TSTM      63  57  81 E16       30.14R
TORRINGTON     CLOUDY    73  59  61 S6        30.05R
PINE BLUFFS    DRIZZLE   68  55  64 S13       30.13F

$$



USA.gov is the U.S. government's official web portal to all federal, state and local government web resources and services.